Location: Killam
(52.7910°N, 111.8608°W)
Time: 20:35:31
(UTC+00:00)

Vanguard 2 Rocket - Pass Details

Date: 23 February 2026
Orbit: 553 x 3287 km, 32.9° (Epoch: 6 March)

Event Time Altitude Azimuth Distance (km) Brightness Sun altitude
Rises 00:19:13 0° 268° (W) 6,676 12.9 4.1°
Reaches altitude 10° 00:26:50 10° 250° (WSW) 5,095 13.5 3.0°
Maximum altitude 00:33:11 15° 223° (SW) 4,129 11.5 2.1°
Drops below altitude 10° 00:38:21 10° 194° (SSW) 3,952 10.7 1.4°
Sets 00:42:54 0° 171° (S) 4,408 10.5 0.7°
